Find Local Weather

World > North America > United States > Pennsylvania

Tunkhannock, Pennsylvania Regional Weather

Lat: 41.54N, Lon: 75.95W
Wx Zone: PAZ043
Feedback
Expires:201805270200;;582487
ASUS41 KPHI 270113
RWRPHI

REGIONAL WEATHER ROUNDUP
NATIONAL WEATHER SERVICE MOUNT HOLLY NJ
900 PM EDT SAT MAY 26 2018

NOTE:  "FAIR" INDICATES FEW OR NO CLOUDS BELOW 12,000 FEET WITH NO
SIGNIFICANT WEATHER AND/OR OBSTRUCTIONS TO VISIBILITY.

 * = STATION DOES NOT REPORT PRECIPITATION (E.G. RAIN, SNOW, ETC.) 
        OR FOG.


PAZ043-044-047-054-055-060>062-066>071-270200-
EASTERN PENNSYLVANIA
  
CITY           SKY/WX    TMP DP  RH WIND       PRES   REMARKS
PHILADELPHIA   CLOUDY    75  69  81 E3        29.84S                  
NORTH PHILA    MOCLDY    81  66  60 VRB5      29.85R                  
BLUE BELL*     FAIR      77  68  73 SW5       29.86S                  
DOYLESTOWN     FAIR      81  66  60 S7        29.84R                  
QUAKERTOWN*    CLEAR     81  70  69 S3        29.86R                  
PERKASIE*      FAIR      79  68  69 CALM      29.87R                  
POTTSTOWN      FAIR      79  68  69 S5        29.86R                  
LANCASTER      FAIR      80  68  66 SW9       29.84R                  
COATESVILLE    FAIR      77  70  78 CALM      29.88R                  
READING        FAIR      81  70  69 S10       29.83R                  
ALLENTOWN      FAIR      80  60  50 CALM      29.83S                  
MOUNT POCONO   MOCLDY    69  59  70 CALM      29.92R                  
HAZLETON       FAIR      72  54  53 CALM      29.93R                  
LEHIGHTON      FAIR      73  66  78 CALM      29.85R                  
WILKES BARRE   MOCLDY    76  58  53 E5        29.87R                  

$$

SKY/WX - Weather  TMP - Temperature  DP - Dewpoint  RH - Relative Humidity
WIND - Wind Direction/Speed PRES - Barometric Pressure